Location: Johnson City
(36.3130°N, 82.3540°W)
Time: 22:36:14
(UTC-04:00)

ISS - Visible Passes

Search period start: 24 July 2017 00:00
Search period end: 03 August 2017 00:00
Orbit: 400 x 408 km, 51.6° (Epoch: 25 July)

Date Brightness Start Highest point End Pass type
(mag) Time Alt. Az. Time Alt. Az. Time Alt. Az.
24 Jul -2.0 04:25:45 10° NNW 04:28:44 32° NE 04:31:42 10° E visible
24 Jul -1.1 22:40:41 10° W 22:43:14 21° NNW 22:45:46 10° NNE visible
25 Jul -1.1 03:33:48 10° NNW 03:36:16 19° NNE 03:38:43 10° ENE visible
25 Jul -3.6 05:09:45 10° WNW 05:12:52 43° SW 05:15:59 10° SSE visible
25 Jul -2.1 21:47:44 10° WSW 21:50:45 35° NW 21:53:47 10° NNE visible
26 Jul -0.5 22:34:00 10° NW 22:35:20 12° NNW 22:36:40 10° N visible
27 Jul -0.8 21:40:24 10° WNW 21:42:43 18° NNW 21:45:02 10° NNE visible
29 Jul -0.4 21:34:02 10° NW 21:34:46 11° NNW 21:35:31 10° N visible
